Time,TemperatureF,DewpointF,PressureIn,WindDirection,WindDirectionDegrees,WindSpeedMPH,WindSpeedGustMPH,Humidity,HourlyPrecipIn,Conditions,Clouds,dailyrainin,SoftwareType,DateUTC
2013-02-25 00:00:00,39.3,27.7,30.06,North,9,0.0,0.0,63,0.00,,,0.00,Wunderground v.1.15,2013-02-25 05:00:00,
2013-02-25 00:05:00,39.1,27.9,30.06,North,9,0.0,0.0,64,0.00,,,0.00,Wunderground v.1.15,2013-02-25 05:05:00,
2013-02-25 00:10:00,38.9,27.4,30.07,North,5,0.0,0.0,63,0.00,,,0.00,Wunderground v.1.15,2013-02-25 05:10:00,
2013-02-25 00:15:00,38.8,26.9,30.07,North,360,0.0,0.0,62,0.00,,,0.00,Wunderground v.1.15,2013-02-25 05:15:00,
2013-02-25 00:20:00,38.8,27.7,30.07,NNW,332,0.0,0.0,64,0.00,,,0.00,Wunderground v.1.15,2013-02-25 05:20:00,
2013-02-25 00:25:00,38.8,27.7,30.07,North,351,0.0,0.0,64,0.00,,,0.00,Wunderground v.1.15,2013-02-25 05:25:00,
2013-02-25 00:30:00,38.6,28.2,30.07,NW,313,0.0,0.0,66,0.00,,,0.00,Wunderground v.1.15,2013-02-25 05:30:00,
2013-02-25 00:35:00,38.4,26.9,30.08,NE,46,0.0,0.0,63,0.00,,,0.00,Wunderground v.1.15,2013-02-25 05:35:00,
2013-02-25 00:40:00,38.5,27.0,30.08,North,9,0.0,0.0,63,0.00,,,0.00,Wunderground v.1.15,2013-02-25 05:40:00,
2013-02-25 00:45:00,38.5,27.4,30.08,North,9,0.0,0.0,64,0.00,,,0.00,Wunderground v.1.15,2013-02-25 05:45:00,
2013-02-25 00:50:00,38.4,27.3,30.08,NW,325,0.0,0.0,64,0.00,,,0.00,Wunderground v.1.15,2013-02-25 05:50:00,
2013-02-25 00:55:00,38.4,27.3,30.08,NW,325,0.0,0.0,64,0.00,,,0.00,Wunderground v.1.15,2013-02-25 05:55:00,
2013-02-25 01:00:00,38.5,25.8,30.08,NW,325,0.0,0.0,60,0.00,,,0.00,Wunderground v.1.15,2013-02-25 06:00:00,
2013-02-25 01:05:00,38.6,26.3,30.08,NW,325,0.0,0.0,61,0.00,,,0.00,Wunderground v.1.15,2013-02-25 06:05:00,
2013-02-25 01:10:00,38.5,26.2,30.09,NW,325,0.0,0.0,61,0.00,,,0.00,Wunderground v.1.15,2013-02-25 06:10:00,
2013-02-25 01:20:00,38.2,25.5,30.09,NW,325,0.0,1.0,60,0.00,,,0.00,Wunderground v.1.15,2013-02-25 06:20:00,
2013-02-25 01:25:00,38.0,26.1,30.09,NNW,327,0.0,1.0,62,0.00,,,0.00,Wunderground v.1.15,2013-02-25 06:25:00,
2013-02-25 01:30:00,37.9,25.6,30.09,North,9,0.0,0.0,61,0.00,,,0.00,Wunderground v.1.15,2013-02-25 06:30:00,
2013-02-25 01:35:00,38.2,25.5,30.10,NNE,27,0.0,3.0,60,0.00,,,0.00,Wunderground v.1.15,2013-02-25 06:35:00,
2013-02-25 01:40:00,38.7,25.2,30.10,North,5,1.0,1.0,58,0.00,,,0.00,Wunderground v.1.15,2013-02-25 06:40:00,
2013-02-25 01:45:00,39.2,25.6,30.09,NNE,24,1.0,1.0,58,0.00,,,0.00,Wunderground v.1.15,2013-02-25 06:45:00,
2013-02-25 01:50:00,39.4,25.8,30.10,North,355,1.0,1.0,58,0.00,,,0.00,Wunderground v.1.15,2013-02-25 06:50:00,
2013-02-25 01:55:00,39.4,25.8,30.10,NE,34,1.0,1.0,58,0.00,,,0.00,Wunderground v.1.15,2013-02-25 06:55:00,
2013-02-25 02:00:00,39.6,26.0,30.10,NE,42,1.0,3.0,58,0.00,,,0.00,Wunderground v.1.15,2013-02-25 07:00:00,
2013-02-25 02:05:00,39.5,27.2,30.11,East,86,3.0,3.0,61,0.00,,,0.00,Wunderground v.1.15,2013-02-25 07:05:00,
2013-02-25 02:10:00,39.3,27.0,30.11,ENE,73,3.0,3.0,61,0.00,,,0.00,Wunderground v.1.15,2013-02-25 07:10:00,
2013-02-25 02:15:00,39.1,27.2,30.11,East,86,1.0,3.0,62,0.00,,,0.00,Wunderground v.1.15,2013-02-25 07:15:00,
2013-02-25 02:20:00,38.8,27.3,30.12,NNE,24,1.0,2.0,63,0.00,,,0.00,Wunderground v.1.15,2013-02-25 07:20:00,
2013-02-25 02:25:00,38.5,27.0,30.11,ESE,119,2.0,2.0,63,0.00,,,0.00,Wunderground v.1.15,2013-02-25 07:25:00,
2013-02-25 02:30:00,38.2,26.7,30.11,ENE,57,2.0,2.0,63,0.00,,,0.00,Wunderground v.1.15,2013-02-25 07:30:00,
2013-02-25 02:35:00,38.0,26.9,30.12,North,360,1.0,2.0,64,0.00,,,0.00,Wunderground v.1.15,2013-02-25 07:35:00,
2013-02-25 02:40:00,37.7,26.6,30.11,NNE,13,1.0,1.0,64,0.00,,,0.00,Wunderground v.1.15,2013-02-25 07:40:00,
2013-02-25 02:45:00,37.5,26.4,30.11,NNE,30,1.0,4.0,64,0.00,,,0.00,Wunderground v.1.15,2013-02-25 07:45:00,
2013-02-25 02:50:00,37.2,26.5,30.11,NNE,23,2.0,2.0,65,0.00,,,0.00,Wunderground v.1.15,2013-02-25 07:50:00,
2013-02-25 02:55:00,37.0,26.3,30.11,NE,43,2.0,2.0,65,0.00,,,0.00,Wunderground v.1.15,2013-02-25 07:55:00,
2013-02-25 03:00:00,36.8,26.5,30.11,ENE,78,0.0,2.0,66,0.00,,,0.00,Wunderground v.1.15,2013-02-25 08:00:00,
2013-02-25 03:10:00,36.4,26.5,30.11,ENE,68,1.0,3.0,67,0.00,,,0.00,Wunderground v.1.15,2013-02-25 08:10:00,
2013-02-25 03:20:00,36.0,26.1,30.11,ENE,76,1.0,1.0,67,0.00,,,0.00,Wunderground v.1.15,2013-02-25 08:20:00,
2013-02-25 03:25:00,35.9,26.0,30.11,North,355,1.0,2.0,67,0.00,,,0.00,Wunderground v.1.15,2013-02-25 08:25:00,
2013-02-25 03:30:00,35.7,25.8,30.10,NE,49,1.0,1.0,67,0.00,,,0.00,Wunderground v.1.15,2013-02-25 08:30:00,
2013-02-25 03:35:00,35.6,26.1,30.10,NNE,23,1.0,1.0,68,0.00,,,0.00,Wunderground v.1.15,2013-02-25 08:35:00,
2013-02-25 03:40:00,35.4,25.9,30.11,NE,51,1.0,1.0,68,0.00,,,0.00,Wunderground v.1.15,2013-02-25 08:40:00,
2013-02-25 03:50:00,35.0,25.9,30.11,North,5,0.0,3.0,69,0.00,,,0.00,Wunderground v.1.15,2013-02-25 08:50:00,
2013-02-25 03:55:00,34.9,25.8,30.12,NE,38,0.0,3.0,69,0.00,,,0.00,Wunderground v.1.15,2013-02-25 08:55:00,
2013-02-25 04:00:00,34.8,25.7,30.12,East,83,1.0,1.0,69,0.00,,,0.00,Wunderground v.1.15,2013-02-25 09:00:00,
2013-02-25 04:10:00,34.6,25.8,30.12,ENE,59,0.0,0.0,70,0.00,,,0.00,Wunderground v.1.15,2013-02-25 09:10:00,
2013-02-25 04:20:00,34.3,25.5,30.13,East,90,1.0,1.0,70,0.00,,,0.00,Wunderground v.1.15,2013-02-25 09:20:00,
2013-02-25 04:25:00,34.2,25.8,30.13,East,90,0.0,1.0,71,0.00,,,0.00,Wunderground v.1.15,2013-02-25 09:25:00,
2013-02-25 04:30:00,34.1,25.7,30.14,ENE,77,0.0,0.0,71,0.00,,,0.00,Wunderground v.1.15,2013-02-25 09:30:00,
2013-02-25 04:40:00,33.9,25.5,30.14,NE,46,1.0,4.0,71,0.00,,,0.00,Wunderground v.1.15,2013-02-25 09:40:00,
2013-02-25 04:50:00,33.7,25.3,30.14,NE,44,1.0,1.0,71,0.00,,,0.00,Wunderground v.1.15,2013-02-25 09:50:00,
2013-02-25 05:00:00,33.5,25.1,30.15,ENE,61,0.0,0.0,71,0.00,,,0.00,Wunderground v.1.15,2013-02-25 10:00:00,
2013-02-25 05:05:00,33.5,25.1,30.15,East,93,1.0,1.0,71,0.00,,,0.00,Wunderground v.1.15,2013-02-25 10:05:00,
2013-02-25 05:10:00,33.3,24.9,30.15,ENE,77,0.0,0.0,71,0.00,,,0.00,Wunderground v.1.15,2013-02-25 10:10:00,
2013-02-25 05:20:00,33.2,25.1,30.16,ENE,67,0.0,0.0,72,0.00,,,0.00,Wunderground v.1.15,2013-02-25 10:20:00,
2013-02-25 05:25:00,33.1,24.7,30.16,ENE,58,0.0,0.0,71,0.00,,,0.00,Wunderground v.1.15,2013-02-25 10:25:00,
2013-02-25 05:30:00,33.0,24.6,30.16,NE,34,1.0,2.0,71,0.00,,,0.00,Wunderground v.1.15,2013-02-25 10:30:00,
2013-02-25 05:35:00,33.0,24.6,30.16,NE,53,1.0,2.0,71,0.00,,,0.00,Wunderground v.1.15,2013-02-25 10:35:00,
2013-02-25 05:40:00,33.0,24.6,30.16,NE,50,0.0,0.0,71,0.00,,,0.00,Wunderground v.1.15,2013-02-25 10:40:00,
2013-02-25 05:45:00,32.9,24.5,30.17,ENE,59,0.0,3.0,71,0.00,,,0.00,Wunderground v.1.15,2013-02-25 10:45:00,
2013-02-25 05:50:00,32.9,24.5,30.17,North,11,0.0,0.0,71,0.00,,,0.00,Wunderground v.1.15,2013-02-25 10:50:00,
2013-02-25 05:55:00,32.7,24.3,30.16,East,83,1.0,1.0,71,0.00,,,0.00,Wunderground v.1.15,2013-02-25 10:55:00,
2013-02-25 06:00:00,32.7,24.7,30.16,North,360,1.0,1.0,72,0.00,,,0.00,Wunderground v.1.15,2013-02-25 11:00:00,
2013-02-25 06:05:00,32.6,24.6,30.16,ENE,72,0.0,1.0,72,0.00,,,0.00,Wunderground v.1.15,2013-02-25 11:05:00,
2013-02-25 06:10:00,32.5,24.5,30.17,NNE,26,0.0,0.0,72,0.00,,,0.00,Wunderground v.1.15,2013-02-25 11:10:00,
2013-02-25 06:15:00,32.5,24.5,30.17,ENE,58,0.0,0.0,72,0.00,,,0.00,Wunderground v.1.15,2013-02-25 11:15:00,
2013-02-25 06:20:00,32.4,24.4,30.18,ENE,62,0.0,0.0,72,0.00,,,0.00,Wunderground v.1.15,2013-02-25 11:20:00,
2013-02-25 06:25:00,32.3,24.3,30.18,NNE,17,0.0,0.0,72,0.00,,,0.00,Wunderground v.1.15,2013-02-25 11:25:00,
2013-02-25 06:30:00,32.3,24.3,30.18,ENE,69,1.0,1.0,72,0.00,,,0.00,Wunderground v.1.15,2013-02-25 11:30:00,
2013-02-25 06:35:00,32.2,24.2,30.17,SSE,151,1.0,1.0,72,0.00,,,0.00,Wunderground v.1.15,2013-02-25 11:35:00,
2013-02-25 06:40:00,32.1,24.1,30.17,ENE,66,1.0,2.0,72,0.00,,,0.00,Wunderground v.1.15,2013-02-25 11:40:00,
2013-02-25 06:45:00,32.1,24.1,30.17,ENE,69,1.0,2.0,72,0.00,,,0.00,Wunderground v.1.15,2013-02-25 11:45:00,
2013-02-25 06:50:00,32.1,24.1,30.18,NE,53,0.0,0.0,72,0.00,,,0.00,Wunderground v.1.15,2013-02-25 11:50:00,
2013-02-25 06:55:00,32.0,24.0,30.18,NE,49,0.0,0.0,72,0.00,,,0.00,Wunderground v.1.15,2013-02-25 11:55:00,
2013-02-25 07:00:00,31.9,24.2,30.17,NE,41,0.0,0.0,73,0.00,,,0.00,Wunderground v.1.15,2013-02-25 12:00:00,
2013-02-25 07:05:00,31.9,23.9,30.18,NNE,20,0.0,3.0,72,0.00,,,0.00,Wunderground v.1.15,2013-02-25 12:05:00,
2013-02-25 07:10:00,31.8,24.1,30.18,NE,51,1.0,1.0,73,0.00,,,0.00,Wunderground v.1.15,2013-02-25 12:10:00,
2013-02-25 07:15:00,31.8,23.8,30.18,ENE,69,1.0,1.0,72,0.00,,,0.00,Wunderground v.1.15,2013-02-25 12:15:00,
2013-02-25 07:20:00,31.8,24.1,30.18,ENE,74,1.0,1.0,73,0.00,,,0.00,Wunderground v.1.15,2013-02-25 12:20:00,
2013-02-25 07:25:00,31.7,24.0,30.18,NE,45,1.0,1.0,73,0.00,,,0.00,Wunderground v.1.15,2013-02-25 12:25:00,
2013-02-25 07:30:00,31.7,23.7,30.18,NE,51,1.0,1.0,72,0.00,,,0.00,Wunderground v.1.15,2013-02-25 12:30:00,
2013-02-25 07:40:00,31.7,23.7,30.18,ENE,78,0.0,0.0,72,0.00,,,0.00,Wunderground v.1.15,2013-02-25 12:40:00,
2013-02-25 07:45:00,31.7,23.7,30.18,ENE,64,1.0,1.0,72,0.00,,,0.00,Wunderground v.1.15,2013-02-25 12:45:00,
2013-02-25 07:50:00,31.8,23.5,30.19,ENE,63,2.0,3.0,71,0.00,,,0.00,Wunderground v.1.15,2013-02-25 12:50:00,
2013-02-25 07:55:00,31.9,23.6,30.19,East,84,1.0,3.0,71,0.00,,,0.00,Wunderground v.1.15,2013-02-25 12:55:00,
2013-02-25 08:00:00,32.0,23.7,30.20,ENE,72,1.0,1.0,71,0.00,,,0.00,Wunderground v.1.15,2013-02-25 13:00:00,
2013-02-25 08:10:00,32.1,23.1,30.21,North,5,0.0,0.0,69,0.00,,,0.00,Wunderground v.1.15,2013-02-25 13:10:00,
2013-02-25 08:15:00,32.3,23.6,30.22,SE,138,0.0,0.0,70,0.00,,,0.00,Wunderground v.1.15,2013-02-25 13:15:00,
2013-02-25 08:20:00,32.4,23.4,30.22,SE,126,0.0,0.0,69,0.00,,,0.00,Wunderground v.1.15,2013-02-25 13:20:00,
2013-02-25 08:25:00,32.5,22.8,30.22,ENE,76,1.0,4.0,67,0.00,,,0.00,Wunderground v.1.15,2013-02-25 13:25:00,
2013-02-25 08:30:00,32.6,22.8,30.22,ENE,76,2.0,4.0,67,0.00,,,0.00,Wunderground v.1.15,2013-02-25 13:30:00,
2013-02-25 08:35:00,32.7,22.6,30.22,East,88,2.0,4.0,66,0.00,,,0.00,Wunderground v.1.15,2013-02-25 13:35:00,
2013-02-25 08:40:00,32.9,22.8,30.22,NW,304,2.0,2.0,66,0.00,,,0.00,Wunderground v.1.15,2013-02-25 13:40:00,
2013-02-25 08:45:00,33.0,22.9,30.22,East,85,1.0,3.0,66,0.00,,,0.00,Wunderground v.1.15,2013-02-25 13:45:00,
2013-02-25 08:50:00,33.2,22.7,30.22,NNE,17,1.0,1.0,65,0.00,,,0.00,Wunderground v.1.15,2013-02-25 13:50:00,
2013-02-25 08:55:00,33.4,22.9,30.22,NNE,28,2.0,2.0,65,0.00,,,0.00,Wunderground v.1.15,2013-02-25 13:55:00,
2013-02-25 09:00:00,33.5,22.2,30.22,North,360,2.0,5.0,63,0.00,,,0.00,Wunderground v.1.15,2013-02-25 14:00:00,
2013-02-25 09:10:00,33.9,22.2,30.23,East,80,2.0,6.0,62,0.00,,,0.00,Wunderground v.1.15,2013-02-25 14:10:00,
2013-02-25 09:15:00,33.9,21.9,30.23,ENE,68,3.0,6.0,61,0.00,,,0.00,Wunderground v.1.15,2013-02-25 14:15:00,
2013-02-25 09:20:00,34.0,22.3,30.24,ENE,64,3.0,3.0,62,0.00,,,0.00,Wunderground v.1.15,2013-02-25 14:20:00,
2013-02-25 09:25:00,34.2,22.5,30.24,North,360,3.0,3.0,62,0.00,,,0.00,Wunderground v.1.15,2013-02-25 14:25:00,
2013-02-25 09:30:00,34.4,21.9,30.24,ENE,58,3.0,3.0,60,0.00,,,0.00,Wunderground v.1.15,2013-02-25 14:30:00,
2013-02-25 09:40:00,34.6,22.1,30.24,NNE,32,4.0,8.0,60,0.00,,,0.00,Wunderground v.1.15,2013-02-25 14:40:00,
2013-02-25 09:45:00,34.7,22.2,30.25,SSE,156,4.0,8.0,60,0.00,,,0.00,Wunderground v.1.15,2013-02-25 14:45:00,
2013-02-25 09:50:00,34.9,22.4,30.25,NNE,16,4.0,4.0,60,0.00,,,0.00,Wunderground v.1.15,2013-02-25 14:50:00,
2013-02-25 09:55:00,35.2,22.3,30.25,NE,40,3.0,4.0,59,0.00,,,0.00,Wunderground v.1.15,2013-02-25 14:55:00,
2013-02-25 10:00:00,35.3,22.0,30.25,North,351,2.0,3.0,58,0.00,,,0.00,Wunderground v.1.15,2013-02-25 15:00:00,
2013-02-25 10:05:00,35.5,21.8,30.25,NNE,23,3.0,3.0,57,0.00,,,0.00,Wunderground v.1.15,2013-02-25 15:05:00,
2013-02-25 10:10:00,35.4,22.1,30.25,ENE,57,3.0,3.0,58,0.00,,,0.00,Wunderground v.1.15,2013-02-25 15:10:00,
2013-02-25 10:15:00,35.4,22.1,30.25,ENE,61,3.0,3.0,58,0.00,,,0.00,Wunderground v.1.15,2013-02-25 15:15:00,
2013-02-25 10:20:00,35.7,22.4,30.24,NNE,19,2.0,2.0,58,0.00,,,0.00,Wunderground v.1.15,2013-02-25 15:20:00,
2013-02-25 10:25:00,35.8,22.5,30.25,NNE,16,2.0,2.0,58,0.00,,,0.00,Wunderground v.1.15,2013-02-25 15:25:00,
2013-02-25 10:30:00,36.1,22.3,30.25,ENE,59,2.0,2.0,57,0.00,,,0.00,Wunderground v.1.15,2013-02-25 15:30:00,
2013-02-25 10:35:00,36.2,22.0,30.24,NE,42,2.0,2.0,56,0.00,,,0.00,Wunderground v.1.15,2013-02-25 15:35:00,
2013-02-25 10:40:00,36.4,22.6,30.24,ENE,71,2.0,4.0,57,0.00,,,0.00,Wunderground v.1.15,2013-02-25 15:40:00,
2013-02-25 10:45:00,36.6,22.4,30.24,East,82,2.0,4.0,56,0.00,,,0.00,Wunderground v.1.15,2013-02-25 15:45:00,
2013-02-25 10:50:00,36.8,22.1,30.25,ENE,66,2.0,2.0,55,0.00,,,0.00,Wunderground v.1.15,2013-02-25 15:50:00,
2013-02-25 10:55:00,36.8,22.1,30.24,ENE,78,2.0,3.0,55,0.00,,,0.00,Wunderground v.1.15,2013-02-25 15:55:00,
2013-02-25 11:00:00,36.7,22.5,30.23,NNE,18,2.0,2.0,56,0.00,,,0.00,Wunderground v.1.15,2013-02-25 16:00:00,
2013-02-25 11:10:00,37.1,22.4,30.23,ENE,66,1.0,1.0,55,0.00,,,0.00,Wunderground v.1.15,2013-02-25 16:10:00,
2013-02-25 11:15:00,37.4,22.7,30.23,East,80,1.0,3.0,55,0.00,,,0.00,Wunderground v.1.15,2013-02-25 16:15:00,
2013-02-25 11:20:00,37.6,23.3,30.23,NE,42,2.0,2.0,56,0.00,,,0.00,Wunderground v.1.15,2013-02-25 16:20:00,
2013-02-25 11:25:00,37.8,22.6,30.23,NNE,22,1.0,2.0,54,0.00,,,0.00,Wunderground v.1.15,2013-02-25 16:25:00,
2013-02-25 11:30:00,37.9,22.7,30.23,North,360,1.0,5.0,54,0.00,,,0.00,Wunderground v.1.15,2013-02-25 16:30:00,
2013-02-25 11:35:00,38.0,22.8,30.23,NE,55,2.0,5.0,54,0.00,,,0.00,Wunderground v.1.15,2013-02-25 16:35:00,
2013-02-25 11:40:00,38.3,24.0,30.23,NNW,344,1.0,3.0,56,0.00,,,0.00,Wunderground v.1.15,2013-02-25 16:40:00,
2013-02-25 11:50:00,39.2,23.9,30.23,NW,326,1.0,1.0,54,0.00,,,0.00,Wunderground v.1.15,2013-02-25 16:50:00,
2013-02-25 11:55:00,39.3,23.6,30.23,NNW,337,1.0,1.0,53,0.00,,,0.00,Wunderground v.1.15,2013-02-25 16:55:00,
2013-02-25 12:00:00,39.1,23.4,30.23,NE,42,1.0,1.0,53,0.00,,,0.00,Wunderground v.1.15,2013-02-25 17:00:00,
2013-02-25 12:05:00,39.1,22.9,30.23,NNE,28,1.0,1.0,52,0.00,,,0.00,Wunderground v.1.15,2013-02-25 17:05:00,
2013-02-25 12:10:00,39.1,22.9,30.23,North,355,1.0,1.0,52,0.00,,,0.00,Wunderground v.1.15,2013-02-25 17:10:00,
2013-02-25 12:15:00,39.3,23.6,30.22,SSW,201,1.0,1.0,53,0.00,,,0.00,Wunderground v.1.15,2013-02-25 17:15:00,
2013-02-25 12:20:00,39.7,24.0,30.22,NE,44,1.0,5.0,53,0.00,,,0.00,Wunderground v.1.15,2013-02-25 17:20:00,
2013-02-25 12:25:00,39.7,23.0,30.21,North,11,1.0,5.0,51,0.00,,,0.00,Wunderground v.1.15,2013-02-25 17:25:00,
2013-02-25 12:30:00,39.9,24.1,30.21,NE,55,1.0,2.0,53,0.00,,,0.00,Wunderground v.1.15,2013-02-25 17:30:00,
2013-02-25 12:35:00,40.0,23.8,30.20,ENE,60,0.0,2.0,52,0.00,,,0.00,Wunderground v.1.15,2013-02-25 17:35:00,
2013-02-25 12:40:00,40.3,25.0,30.20,NNW,340,0.0,0.0,54,0.00,,,0.00,Wunderground v.1.15,2013-02-25 17:40:00,
2013-02-25 12:45:00,40.4,23.7,30.19,NNE,19,1.0,1.0,51,0.00,,,0.00,Wunderground v.1.15,2013-02-25 17:45:00,
2013-02-25 12:50:00,40.4,23.2,30.19,ENE,77,1.0,1.0,50,0.00,,,0.00,Wunderground v.1.15,2013-02-25 17:50:00,
2013-02-25 12:55:00,40.2,24.0,30.19,NNW,329,0.0,1.0,52,0.00,,,0.00,Wunderground v.1.15,2013-02-25 17:55:00,
2013-02-25 13:00:00,40.3,23.1,30.19,NE,48,1.0,3.0,50,0.00,,,0.00,Wunderground v.1.15,2013-02-25 18:00:00,
2013-02-25 13:05:00,40.0,22.8,30.19,ENE,58,2.0,4.0,50,0.00,,,0.00,Wunderground v.1.15,2013-02-25 18:05:00,
2013-02-25 13:10:00,39.6,22.9,30.19,NE,42,3.0,4.0,51,0.00,,,0.00,Wunderground v.1.15,2013-02-25 18:10:00,
2013-02-25 13:20:00,39.7,23.5,30.19,WNW,300,1.0,1.0,52,0.00,,,0.00,Wunderground v.1.15,2013-02-25 18:20:00,
2013-02-25 13:25:00,39.9,23.7,30.19,East,89,1.0,4.0,52,0.00,,,0.00,Wunderground v.1.15,2013-02-25 18:25:00,
2013-02-25 13:30:00,40.1,23.4,30.19,East,91,0.0,0.0,51,0.00,,,0.00,Wunderground v.1.15,2013-02-25 18:30:00,
2013-02-25 13:35:00,40.4,24.1,30.20,NW,316,0.0,0.0,52,0.00,,,0.00,Wunderground v.1.15,2013-02-25 18:35:00,
2013-02-25 13:40:00,40.6,23.9,30.21,NW,322,0.0,0.0,51,0.00,,,0.00,Wunderground v.1.15,2013-02-25 18:40:00,
2013-02-25 13:45:00,40.7,24.0,30.20,NW,322,0.0,0.0,51,0.00,,,0.00,Wunderground v.1.15,2013-02-25 18:45:00,
2013-02-25 13:50:00,40.9,24.1,30.20,NE,34,0.0,0.0,51,0.00,,,0.00,Wunderground v.1.15,2013-02-25 18:50:00,
2013-02-25 14:00:00,40.7,23.0,30.19,ENE,59,1.0,3.0,49,0.00,,,0.00,Wunderground v.1.15,2013-02-25 19:00:00,
2013-02-25 14:05:00,40.5,22.8,30.20,North,11,1.0,3.0,49,0.00,,,0.00,Wunderground v.1.15,2013-02-25 19:05:00,
2013-02-25 14:10:00,40.6,22.9,30.19,NE,45,1.0,1.0,49,0.00,,,0.00,Wunderground v.1.15,2013-02-25 19:10:00,
2013-02-25 14:20:00,40.6,23.9,30.19,North,355,1.0,1.0,51,0.00,,,0.00,Wunderground v.1.15,2013-02-25 19:20:00,
2013-02-25 14:30:00,40.6,23.4,30.18,ESE,119,0.0,0.0,50,0.00,,,0.00,Wunderground v.1.15,2013-02-25 19:30:00,
2013-02-25 14:40:00,40.7,23.0,30.18,NNE,14,1.0,1.0,49,0.00,,,0.00,Wunderground v.1.15,2013-02-25 19:40:00,
2013-02-25 14:45:00,40.7,23.0,30.18,NNE,15,1.0,1.0,49,0.00,,,0.00,Wunderground v.1.15,2013-02-25 19:45:00,
2013-02-25 14:50:00,40.6,23.4,30.18,NE,53,1.0,2.0,50,0.00,,,0.00,Wunderground v.1.15,2013-02-25 19:50:00,
2013-02-25 15:00:00,40.7,24.0,30.18,ENE,61,0.0,0.0,51,0.00,,,0.00,Wunderground v.1.15,2013-02-25 20:00:00,
2013-02-25 15:05:00,40.8,24.1,30.18,ENE,58,0.0,0.0,51,0.00,,,0.00,Wunderground v.1.15,2013-02-25 20:05:00,
2013-02-25 15:10:00,40.8,23.6,30.17,East,83,0.0,0.0,50,0.00,,,0.00,Wunderground v.1.15,2013-02-25 20:10:00,
2013-02-25 15:15:00,40.7,23.5,30.17,East,81,0.0,0.0,50,0.00,,,0.00,Wunderground v.1.15,2013-02-25 20:15:00,
2013-02-25 15:20:00,40.7,23.5,30.17,ENE,69,1.0,2.0,50,0.00,,,0.00,Wunderground v.1.15,2013-02-25 20:20:00,
2013-02-25 15:25:00,40.5,23.3,30.17,ENE,69,1.0,2.0,50,0.00,,,0.00,Wunderground v.1.15,2013-02-25 20:25:00,
2013-02-25 15:30:00,40.6,23.9,30.17,East,82,1.0,1.0,51,0.00,,,0.00,Wunderground v.1.15,2013-02-25 20:30:00,
2013-02-25 15:35:00,40.6,23.9,30.17,ENE,72,1.0,1.0,51,0.00,,,0.00,Wunderground v.1.15,2013-02-25 20:35:00,
2013-02-25 15:40:00,40.6,23.9,30.17,ENE,59,1.0,1.0,51,0.00,,,0.00,Wunderground v.1.15,2013-02-25 20:40:00,
2013-02-25 15:45:00,40.7,24.0,30.18,ENE,62,1.0,2.0,51,0.00,,,0.00,Wunderground v.1.15,2013-02-25 20:45:00,
2013-02-25 15:50:00,40.7,23.5,30.18,NE,42,0.0,0.0,50,0.00,,,0.00,Wunderground v.1.15,2013-02-25 20:50:00,
2013-02-25 15:55:00,40.7,24.0,30.17,NE,42,0.0,0.0,51,0.00,,,0.00,Wunderground v.1.15,2013-02-25 20:55:00,
2013-02-25 16:00:00,40.7,24.4,30.18,NE,53,0.0,0.0,52,0.00,,,0.00,Wunderground v.1.15,2013-02-25 21:00:00,
2013-02-25 16:05:00,40.5,23.8,30.18,East,80,1.0,1.0,51,0.00,,,0.00,Wunderground v.1.15,2013-02-25 21:05:00,
2013-02-25 16:10:00,40.4,23.7,30.18,ENE,69,1.0,3.0,51,0.00,,,0.00,Wunderground v.1.15,2013-02-25 21:10:00,
2013-02-25 16:15:00,40.3,23.6,30.18,ENE,59,1.0,3.0,51,0.00,,,0.00,Wunderground v.1.15,2013-02-25 21:15:00,
2013-02-25 16:20:00,40.2,23.5,30.18,ENE,70,1.0,1.0,51,0.00,,,0.00,Wunderground v.1.15,2013-02-25 21:20:00,
2013-02-25 16:25:00,40.2,24.0,30.18,ENE,70,1.0,1.0,52,0.00,,,0.00,Wunderground v.1.15,2013-02-25 21:25:00,
2013-02-25 16:30:00,40.4,24.6,30.18,ENE,70,0.0,0.0,53,0.00,,,0.00,Wunderground v.1.15,2013-02-25 21:30:00,
2013-02-25 16:40:00,40.4,24.1,30.17,NNE,24,0.0,0.0,52,0.00,,,0.00,Wunderground v.1.15,2013-02-25 21:40:00,
2013-02-25 16:45:00,40.4,24.1,30.17,ENE,65,1.0,1.0,52,0.00,,,0.00,Wunderground v.1.15,2013-02-25 21:45:00,
2013-02-25 16:50:00,40.5,24.7,30.17,ENE,61,1.0,1.0,53,0.00,,,0.00,Wunderground v.1.15,2013-02-25 21:50:00,
2013-02-25 16:55:00,40.5,23.8,30.17,ENE,62,1.0,1.0,51,0.00,,,0.00,Wunderground v.1.15,2013-02-25 21:55:00,
2013-02-25 17:00:00,40.4,24.1,30.17,North,360,1.0,1.0,52,0.00,,,0.00,Wunderground v.1.15,2013-02-25 22:00:00,
2013-02-25 17:05:00,40.3,24.1,30.17,ENE,69,1.0,1.0,52,0.00,,,0.00,Wunderground v.1.15,2013-02-25 22:05:00,
2013-02-25 17:10:00,40.2,24.0,30.17,ENE,61,1.0,1.0,52,0.00,,,0.00,Wunderground v.1.15,2013-02-25 22:10:00,
2013-02-25 17:15:00,40.1,23.9,30.17,NNE,32,1.0,1.0,52,0.00,,,0.00,Wunderground v.1.15,2013-02-25 22:15:00,
2013-02-25 17:20:00,40.0,23.8,30.17,NNE,24,1.0,2.0,52,0.00,,,0.00,Wunderground v.1.15,2013-02-25 22:20:00,
2013-02-25 17:25:00,39.9,24.1,30.17,ENE,66,1.0,2.0,53,0.00,,,0.00,Wunderground v.1.15,2013-02-25 22:25:00,
2013-02-25 17:30:00,39.8,24.0,30.17,ENE,61,1.0,1.0,53,0.00,,,0.00,Wunderground v.1.15,2013-02-25 22:30:00,
2013-02-25 17:35:00,39.8,24.5,30.17,North,5,1.0,1.0,54,0.00,,,0.00,Wunderground v.1.15,2013-02-25 22:35:00,
2013-02-25 17:40:00,39.6,24.3,30.17,North,9,0.0,0.0,54,0.00,,,0.00,Wunderground v.1.15,2013-02-25 22:40:00,
2013-02-25 17:45:00,39.6,24.3,30.17,NNE,23,0.0,0.0,54,0.00,,,0.00,Wunderground v.1.15,2013-02-25 22:45:00,
2013-02-25 17:50:00,39.4,24.6,30.17,NE,54,0.0,0.0,55,0.00,,,0.00,Wunderground v.1.15,2013-02-25 22:50:00,
2013-02-25 17:55:00,39.3,24.5,30.17,NNE,28,1.0,1.0,55,0.00,,,0.00,Wunderground v.1.15,2013-02-25 22:55:00,
2013-02-25 18:00:00,39.2,24.8,30.18,NE,36,0.0,1.0,56,0.00,,,0.00,Wunderground v.1.15,2013-02-25 23:00:00,
2013-02-25 18:05:00,39.0,24.6,30.17,ENE,70,1.0,1.0,56,0.00,,,0.00,Wunderground v.1.15,2013-02-25 23:05:00,
2013-02-25 18:10:00,38.9,24.5,30.17,ESE,109,1.0,1.0,56,0.00,,,0.00,Wunderground v.1.15,2013-02-25 23:10:00,
2013-02-25 18:15:00,38.8,24.4,30.18,ENE,67,0.0,1.0,56,0.00,,,0.00,Wunderground v.1.15,2013-02-25 23:15:00,
2013-02-25 18:20:00,38.6,24.7,30.17,ENE,59,0.0,0.0,57,0.00,,,0.00,Wunderground v.1.15,2013-02-25 23:20:00,
2013-02-25 18:25:00,38.4,24.5,30.17,ENE,59,0.0,0.0,57,0.00,,,0.00,Wunderground v.1.15,2013-02-25 23:25:00,
2013-02-25 18:30:00,38.2,24.3,30.17,ENE,57,0.0,0.0,57,0.00,,,0.00,Wunderground v.1.15,2013-02-25 23:30:00,
2013-02-25 18:40:00,38.0,24.1,30.18,ENE,58,0.0,0.0,57,0.00,,,0.00,Wunderground v.1.15,2013-02-25 23:40:00,
2013-02-25 18:45:00,37.8,24.7,30.18,ENE,58,0.0,0.0,59,0.00,,,0.00,Wunderground v.1.15,2013-02-25 23:45:00,
2013-02-25 18:50:00,37.5,24.5,30.19,ENE,58,0.0,0.0,59,0.00,,,0.00,Wunderground v.1.15,2013-02-25 23:50:00,
2013-02-25 18:55:00,37.3,24.7,30.19,ENE,58,0.0,0.0,60,0.00,,,0.00,Wunderground v.1.15,2013-02-25 23:55:00,
2013-02-25 19:00:00,37.0,24.4,30.19,ENE,58,0.0,0.0,60,0.00,,,0.00,Wunderground v.1.15,2013-02-26 00:00:00,
2013-02-25 19:05:00,36.7,24.5,30.19,ENE,58,0.0,0.0,61,0.00,,,0.00,Wunderground v.1.15,2013-02-26 00:05:00,
2013-02-25 19:10:00,36.4,24.2,30.19,ENE,58,0.0,0.0,61,0.00,,,0.00,Wunderground v.1.15,2013-02-26 00:10:00,
2013-02-25 19:15:00,36.0,23.8,30.19,ENE,58,0.0,0.0,61,0.00,,,0.00,Wunderground v.1.15,2013-02-26 00:15:00,
2013-02-25 19:20:00,35.6,24.2,30.19,ENE,58,0.0,0.0,63,0.00,,,0.00,Wunderground v.1.15,2013-02-26 00:20:00,
2013-02-25 19:30:00,34.9,23.9,30.19,ENE,58,0.0,0.0,64,0.00,,,0.00,Wunderground v.1.15,2013-02-26 00:30:00,
2013-02-25 19:35:00,34.6,24.4,30.19,ENE,58,0.0,0.0,66,0.00,,,0.00,Wunderground v.1.15,2013-02-26 00:35:00,
2013-02-25 19:40:00,34.3,23.7,30.19,ENE,58,0.0,0.0,65,0.00,,,0.00,Wunderground v.1.15,2013-02-26 00:40:00,
2013-02-25 19:45:00,34.1,23.9,30.20,ENE,58,0.0,0.0,66,0.00,,,0.00,Wunderground v.1.15,2013-02-26 00:45:00,
2013-02-25 19:50:00,33.9,24.1,30.20,ENE,58,0.0,0.0,67,0.00,,,0.00,Wunderground v.1.15,2013-02-26 00:50:00,
2013-02-25 19:55:00,33.8,24.0,30.20,ENE,58,0.0,0.0,67,0.00,,,0.00,Wunderground v.1.15,2013-02-26 00:55:00,
2013-02-25 20:00:00,33.6,23.4,30.20,ENE,58,0.0,0.0,66,0.00,,,0.00,Wunderground v.1.15,2013-02-26 01:00:00,
2013-02-25 20:05:00,33.4,23.6,30.20,ENE,58,0.0,0.0,67,0.00,,,0.00,Wunderground v.1.15,2013-02-26 01:05:00,
2013-02-25 20:10:00,33.3,24.2,30.19,ENE,58,0.0,0.0,69,0.00,,,0.00,Wunderground v.1.15,2013-02-26 01:10:00,
2013-02-25 20:15:00,33.2,23.8,30.19,ENE,58,0.0,0.0,68,0.00,,,0.00,Wunderground v.1.15,2013-02-26 01:15:00,
2013-02-25 20:20:00,33.0,23.9,30.19,ENE,58,0.0,0.0,69,0.00,,,0.00,Wunderground v.1.15,2013-02-26 01:20:00,
2013-02-25 20:25:00,32.9,23.8,30.19,ENE,58,0.0,0.0,69,0.00,,,0.00,Wunderground v.1.15,2013-02-26 01:25:00,
2013-02-25 20:30:00,32.9,24.2,30.20,ENE,58,0.0,0.0,70,0.00,,,0.00,Wunderground v.1.15,2013-02-26 01:30:00,
2013-02-25 20:35:00,32.8,25.1,30.20,ENE,58,0.0,0.0,73,0.00,,,0.00,Wunderground v.1.15,2013-02-26 01:35:00,
2013-02-25 20:40:00,32.8,25.1,30.20,ENE,58,0.0,0.0,73,0.00,,,0.00,Wunderground v.1.15,2013-02-26 01:40:00,
2013-02-25 20:45:00,32.6,24.9,30.20,ENE,58,0.0,0.0,73,0.00,,,0.00,Wunderground v.1.15,2013-02-26 01:45:00,
2013-02-25 20:50:00,32.5,24.5,30.19,ENE,58,0.0,0.0,72,0.00,,,0.00,Wunderground v.1.15,2013-02-26 01:50:00,
2013-02-25 20:55:00,32.5,24.1,30.19,ENE,58,0.0,0.0,71,0.00,,,0.00,Wunderground v.1.15,2013-02-26 01:55:00,
2013-02-25 21:00:00,32.8,24.4,30.19,NE,52,0.0,0.0,71,0.00,,,0.00,Wunderground v.1.15,2013-02-26 02:00:00,
2013-02-25 21:05:00,33.0,24.6,30.20,NE,52,0.0,0.0,71,0.00,,,0.00,Wunderground v.1.15,2013-02-26 02:05:00,
2013-02-25 21:10:00,33.3,24.2,30.19,NE,52,0.0,0.0,69,0.00,,,0.00,Wunderground v.1.15,2013-02-26 02:10:00,
2013-02-25 21:15:00,33.4,24.7,30.19,NE,52,0.0,0.0,70,0.00,,,0.00,Wunderground v.1.15,2013-02-26 02:15:00,
2013-02-25 21:20:00,33.5,24.4,30.19,NE,54,0.0,0.0,69,0.00,,,0.00,Wunderground v.1.15,2013-02-26 02:20:00,
2013-02-25 21:25:00,33.6,24.5,30.20,NNW,348,0.0,0.0,69,0.00,,,0.00,Wunderground v.1.15,2013-02-26 02:25:00,
2013-02-25 21:30:00,33.7,25.0,30.20,NNW,348,0.0,0.0,70,0.00,,,0.00,Wunderground v.1.15,2013-02-26 02:30:00,
2013-02-25 21:40:00,33.8,24.4,30.20,ENE,71,0.0,0.0,68,0.00,,,0.00,Wunderground v.1.15,2013-02-26 02:40:00,
2013-02-25 21:45:00,33.8,24.4,30.19,ENE,71,0.0,0.0,68,0.00,,,0.00,Wunderground v.1.15,2013-02-26 02:45:00,
2013-02-25 21:50:00,33.7,25.0,30.18,East,85,0.0,0.0,70,0.00,,,0.00,Wunderground v.1.15,2013-02-26 02:50:00,
2013-02-25 21:55:00,33.6,24.5,30.18,ENE,76,0.0,0.0,69,0.00,,,0.00,Wunderground v.1.15,2013-02-26 02:55:00,
2013-02-25 22:00:00,33.6,24.9,30.19,ENE,76,0.0,0.0,70,0.00,,,0.00,Wunderground v.1.15,2013-02-26 03:00:00,
2013-02-25 22:10:00,33.7,24.6,30.18,NE,38,0.0,0.0,69,0.00,,,0.00,Wunderground v.1.15,2013-02-26 03:10:00,
2013-02-25 22:15:00,33.7,24.6,30.19,NE,38,0.0,0.0,69,0.00,,,0.00,Wunderground v.1.15,2013-02-26 03:15:00,
2013-02-25 22:20:00,33.7,24.6,30.19,NNE,19,0.0,0.0,69,0.00,,,0.00,Wunderground v.1.15,2013-02-26 03:20:00,
2013-02-25 22:25:00,33.6,24.5,30.19,NNE,19,0.0,0.0,69,0.00,,,0.00,Wunderground v.1.15,2013-02-26 03:25:00,
2013-02-25 22:30:00,33.5,24.4,30.19,NNE,28,0.0,0.0,69,0.00,,,0.00,Wunderground v.1.15,2013-02-26 03:30:00,
2013-02-25 22:35:00,33.6,24.5,30.19,NNE,28,0.0,0.0,69,0.00,,,0.00,Wunderground v.1.15,2013-02-26 03:35:00,
2013-02-25 22:40:00,33.5,24.4,30.18,NNE,28,0.0,0.0,69,0.00,,,0.00,Wunderground v.1.15,2013-02-26 03:40:00,
2013-02-25 22:45:00,33.5,24.8,30.18,NNE,28,0.0,0.0,70,0.00,,,0.00,Wunderground v.1.15,2013-02-26 03:45:00,
2013-02-25 22:50:00,33.5,24.8,30.18,NNE,28,0.0,0.0,70,0.00,,,0.00,Wunderground v.1.15,2013-02-26 03:50:00,
2013-02-25 22:55:00,33.5,24.8,30.18,East,80,0.0,0.0,70,0.00,,,0.00,Wunderground v.1.15,2013-02-26 03:55:00,
2013-02-25 23:00:00,33.5,24.4,30.18,East,80,0.0,0.0,69,0.00,,,0.00,Wunderground v.1.15,2013-02-26 04:00:00,
2013-02-25 23:05:00,33.5,24.8,30.18,East,80,0.0,0.0,70,0.00,,,0.00,Wunderground v.1.15,2013-02-26 04:05:00,
2013-02-25 23:10:00,33.3,24.9,30.18,East,80,0.0,0.0,71,0.00,,,0.00,Wunderground v.1.15,2013-02-26 04:10:00,
2013-02-25 23:15:00,33.2,24.5,30.17,East,80,0.0,0.0,70,0.00,,,0.00,Wunderground v.1.15,2013-02-26 04:15:00,
2013-02-25 23:20:00,33.1,24.7,30.17,East,80,0.0,0.0,71,0.00,,,0.00,Wunderground v.1.15,2013-02-26 04:20:00,
2013-02-25 23:25:00,33.0,24.6,30.18,NNE,27,0.0,0.0,71,0.00,,,0.00,Wunderground v.1.15,2013-02-26 04:25:00,
2013-02-25 23:30:00,33.0,25.3,30.18,NNE,27,0.0,0.0,73,0.00,,,0.00,Wunderground v.1.15,2013-02-26 04:30:00,
2013-02-25 23:35:00,32.9,24.5,30.18,NNE,27,0.0,0.0,71,0.00,,,0.00,Wunderground v.1.15,2013-02-26 04:35:00,
2013-02-25 23:40:00,32.9,25.2,30.18,NNE,27,0.0,0.0,73,0.00,,,0.00,Wunderground v.1.15,2013-02-26 04:40:00,
2013-02-25 23:45:00,32.9,24.5,30.18,NE,49,0.0,0.0,71,0.00,,,0.00,Wunderground v.1.15,2013-02-26 04:45:00,
2013-02-25 23:50:00,32.9,26.2,30.18,NE,49,0.0,0.0,76,0.00,,,0.00,Wunderground v.1.15,2013-02-26 04:50:00,
2013-02-25 23:55:00,32.9,24.9,30.18,NE,49,0.0,0.0,72,0.00,,,0.00,Wunderground v.1.15,2013-02-26 04:55:00,